When you browse on this site, cookies collect data to enhance your experience and personalize the content and advertising you see.
Visit our Privacy Policy to learn more. By continuing to use the site, you agree to this use of cookies and data.

Hourly Weather Kerewan

Today, 6 August, Thursday

Time Temperature Precipitation Wind Pressure Humidity
00:00 +27°C° 0.3 mm 2 mps 759 mmHg 94%
01:00 +26°C° 0.3 mm 2 mps 758 mmHg 95%
02:00 +26°C° 0.3 mm 2 mps 758 mmHg 95%
03:00 +26°C° 0.9 mm 2 mps 758 mmHg 94%
04:00 +26°C° 0.9 mm 2 mps 758 mmHg 94%
05:00 +26°C° 0 mm 2 mps 758 mmHg 94%
06:00 +27°C° 0.5 mm 2 mps 759 mmHg 90%
07:00 +28°C° 0.5 mm 2 mps 759 mmHg 86%
08:00 +29°C° 0.5 mm 3 mps 759 mmHg 83%
09:00 +30°C° 0.3 mm 3 mps 759 mmHg 78%
10:00 +31°C° 0.3 mm 3 mps 760 mmHg 74%
11:00 +33°C° 0 mm 4 mps 760 mmHg 69%
12:00 +33°C° 1.1 mm 4 mps 759 mmHg 70%
13:00 +33°C° 1.1 mm 4 mps 758 mmHg 70%
14:00 +33°C° 1.1 mm 5 mps 757 mmHg 71%
15:00 +32°C° 0.5 mm 5 mps 757 mmHg 73%
16:00 +32°C° 0.5 mm 5 mps 758 mmHg 75%
17:00 +30°C° 0.5 mm 6 mps 758 mmHg 77%
18:00 +29°C° 0.2 mm 5 mps 758 mmHg 80%
19:00 +29°C° 0.2 mm 4 mps 758 mmHg 83%
20:00 +28°C° 0.2 mm 4 mps 759 mmHg 86%
21:00 +28°C° 0.2 mm 4 mps 759 mmHg 87%
22:00 +28°C° 0.2 mm 4 mps 760 mmHg 87%
23:00 +28°C° 0.2 mm 4 mps 760 mmHg 88%

Tomorrow, 7 August, Friday

Time Temperature Precipitation Wind Pressure Humidity
00:00 +28°C° 1.4 mm 4 mps 759 mmHg 88%
01:00 +27°C° 1.4 mm 3 mps 759 mmHg 89%
02:00 +27°C° 1.4 mm 3 mps 759 mmHg 89%
03:00 +27°C° 0.7 mm 3 mps 759 mmHg 90%
04:00 +27°C° 0.7 mm 2 mps 758 mmHg 91%
05:00 +27°C° 0.7 mm 2 mps 758 mmHg 91%
06:00 +28°C° 0 mm 2 mps 759 mmHg 88%
07:00 +28°C° 0 mm 2 mps 759 mmHg 86%
08:00 +29°C° 0 mm 3 mps 759 mmHg 83%
09:00 +30°C° 0.2 mm 2 mps 759 mmHg 79%
10:00 +31°C° 0.2 mm 2 mps 759 mmHg 76%
11:00 +31°C° 0.2 mm 2 mps 759 mmHg 72%
12:00 +32°C° 0.5 mm 2 mps 759 mmHg 71%
13:00 +32°C° 0.5 mm 2 mps 758 mmHg 70%
14:00 +32°C° 0.5 mm 2 mps 757 mmHg 68%
15:00 +32°C° 1.8 mm 2 mps 757 mmHg 72%
16:00 +31°C° 1.8 mm 3 mps 757 mmHg 76%
17:00 +31°C° 1.8 mm 3 mps 756 mmHg 79%
18:00 +30°C° 1.1 mm 3 mps 757 mmHg 82%
19:00 +29°C° 1.1 mm 4 mps 758 mmHg 85%
20:00 +28°C° 1.1 mm 4 mps 758 mmHg 87%
21:00 +28°C° 0.2 mm 4 mps 758 mmHg 88%
22:00 +28°C° 0.2 mm 3 mps 759 mmHg 89%
23:00 +28°C° 0.2 mm 3 mps 759 mmHg 90%

Day after tomorrow, 8 August, Saturday

Time Temperature Precipitation Wind Pressure Humidity
00:00 +27°C° 0 mm 3 mps 759 mmHg 91%
01:00 +27°C° 0 mm 3 mps 758 mmHg 92%
02:00 +27°C° 0 mm 3 mps 758 mmHg 92%
03:00 +27°C° 0 mm 3 mps 758 mmHg 92%
04:00 +27°C° 0 mm 2 mps 758 mmHg 93%
05:00 +27°C° 0 mm 2 mps 758 mmHg 93%
06:00 +27°C° 0 mm 2 mps 758 mmHg 90%
07:00 +28°C° 0 mm 3 mps 758 mmHg 86%
08:00 +28°C° 0 mm 3 mps 759 mmHg 83%
09:00 +29°C° 0 mm 3 mps 759 mmHg 77%
10:00 +31°C° 0 mm 2 mps 758 mmHg 70%
11:00 +32°C° 0 mm 2 mps 758 mmHg 64%
12:00 +32°C° 0 mm 2 mps 758 mmHg 62%
13:00 +34°C° 0 mm 3 mps 757 mmHg 60%
14:00 +35°C° 0 mm 3 mps 757 mmHg 58%
15:00 +34°C° 0 mm 4 mps 757 mmHg 62%
16:00 +33°C° 0 mm 4 mps 756 mmHg 66%
17:00 +32°C° 0 mm 4 mps 756 mmHg 70%
18:00 +30°C° 0 mm 4 mps 757 mmHg 72%
19:00 +29°C° 0 mm 4 mps 757 mmHg 75%
20:00 +29°C° 0 mm 4 mps 758 mmHg 78%
21:00 +28°C° 0 mm 4 mps 758 mmHg 78%
22:00 +28°C° 0 mm 3 mps 758 mmHg 79%
23:00 +28°C° 0 mm 3 mps 758 mmHg 79%

9 August, Sunday

Time Temperature Precipitation Wind Pressure Humidity
00:00 +28°C° 0 mm 2 mps 758 mmHg 80%
01:00 +28°C° 0 mm 2 mps 757 mmHg 81%
02:00 +28°C° 0 mm 2 mps 757 mmHg 82%
03:00 +28°C° 0 mm 2 mps 757 mmHg 83%
04:00 +27°C° 0 mm 1 mps 757 mmHg 85%
05:00 +27°C° 0 mm 1 mps 757 mmHg 86%
06:00 +28°C° 0 mm 1 mps 757 mmHg 82%
07:00 +29°C° 0 mm 2 mps 758 mmHg 79%
08:00 +29°C° 0 mm 2 mps 758 mmHg 76%
09:00 +31°C° 0 mm 2 mps 758 mmHg 71%
10:00 +32°C° 0 mm 2 mps 758 mmHg 65%
11:00 +34°C° 0 mm 3 mps 758 mmHg 60%
12:00 +34°C° 0 mm 3 mps 757 mmHg 60%
13:00 +35°C° 0 mm 3 mps 757 mmHg 59%
14:00 +35°C° 0 mm 4 mps 757 mmHg 59%
15:00 +34°C° 0.2 mm 4 mps 756 mmHg 63%
16:00 +33°C° 0.2 mm 4 mps 756 mmHg 68%
17:00 +32°C° 0.2 mm 5 mps 756 mmHg 73%
18:00 +30°C° 0 mm 4 mps 756 mmHg 75%
19:00 +29°C° 0 mm 4 mps 757 mmHg 78%
20:00 +29°C° 0 mm 3 mps 758 mmHg 81%
21:00 +28°C° 0 mm 3 mps 758 mmHg 82%
22:00 +28°C° 0 mm 3 mps 758 mmHg 84%
23:00 +28°C° 0 mm 3 mps 758 mmHg 85%

10 August, Monday

Time Temperature Precipitation Wind Pressure Humidity
00:00 +28°C° 0 mm 3 mps 758 mmHg 86%
01:00 +28°C° 0 mm 3 mps 757 mmHg 86%
02:00 +27°C° 0 mm 3 mps 757 mmHg 87%
03:00 +27°C° 0 mm 3 mps 757 mmHg 87%
04:00 +27°C° 0 mm 2 mps 757 mmHg 87%
05:00 +27°C° 0 mm 2 mps 757 mmHg 88%
06:00 +28°C° 0.1 mm 2 mps 757 mmHg 85%
07:00 +29°C° 0.1 mm 3 mps 758 mmHg 82%
08:00 +29°C° 0.1 mm 3 mps 758 mmHg 79%
09:00 +30°C° 0 mm 3 mps 758 mmHg 74%
10:00 +33°C° 0 mm 4 mps 758 mmHg 68%
11:00 +34°C° 0 mm 4 mps 757 mmHg 63%
12:00 +34°C° 0 mm 4 mps 757 mmHg 63%
13:00 +34°C° 0 mm 5 mps 756 mmHg 63%
14:00 +34°C° 0 mm 5 mps 756 mmHg 63%
15:00 +33°C° 0 mm 5 mps 756 mmHg 66%
16:00 +33°C° 0 mm 5 mps 755 mmHg 69%
17:00 +32°C° 0 mm 6 mps 755 mmHg 71%
18:00 +30°C° 0 mm 5 mps 756 mmHg 74%
19:00 +29°C° 0 mm 4 mps 757 mmHg 77%
20:00 +28°C° 0 mm 3 mps 757 mmHg 80%
21:00 +28°C° 0 mm 3 mps 757 mmHg 81%
22:00 +28°C° 0 mm 3 mps 758 mmHg 81%
23:00 +28°C° 0 mm 3 mps 758 mmHg 82%

11 August, Tuesday

Time Temperature Precipitation Wind Pressure Humidity
00:00 +28°C° 0 mm 3 mps 757 mmHg 82%
01:00 +28°C° 0 mm 3 mps 757 mmHg 82%
02:00 +28°C° 0 mm 3 mps 757 mmHg 82%
03:00 +27°C° 0 mm 3 mps 756 mmHg 82%
04:00 +27°C° 0 mm 3 mps 756 mmHg 83%
05:00 +27°C° 0 mm 3 mps 756 mmHg 83%
06:00 +28°C° 0 mm 4 mps 756 mmHg 80%
07:00 +28°C° 0 mm 4 mps 756 mmHg 77%
08:00 +29°C° 0 mm 5 mps 757 mmHg 74%
09:00 +30°C° 0 mm 5 mps 757 mmHg 70%
10:00 +32°C° 0 mm 5 mps 757 mmHg 66%
11:00 +33°C° 0 mm 5 mps 757 mmHg 63%
12:00 +33°C° 0 mm 5 mps 756 mmHg 62%
13:00 +33°C° 0 mm 5 mps 756 mmHg 62%
14:00 +34°C° 0 mm 5 mps 755 mmHg 61%
15:00 +33°C° 0 mm 5 mps 755 mmHg 64%
16:00 +32°C° 0 mm 5 mps 755 mmHg 67%
17:00 +30°C° 0 mm 6 mps 754 mmHg 70%
18:00 +29°C° 0 mm 5 mps 755 mmHg 73%
19:00 +28°C° 0 mm 4 mps 756 mmHg 76%
20:00 +28°C° 0 mm 3 mps 756 mmHg 79%
21:00 +27°C° 0 mm 3 mps 757 mmHg 80%
22:00 +27°C° 0 mm 3 mps 757 mmHg 81%
23:00 +27°C° 0 mm 2 mps 757 mmHg 82%
Show more